Location: ?ernice
(48.8383°N, 14.3803°E)
Time: 20:27:46
(UTC+00:00)

RESURS DK-1 - Pass Details

Date: 23 May 2024
Orbit: 541 x 547 km, 69.9° (Epoch: 21 June)

Event Time Altitude Azimuth Distance (km) Brightness Sun altitude
Rises 02:04:39 0° 326° (NW) 2,721 6.0 -9.2°
Reaches altitude 10° 02:06:54 10° 321° (NW) 1,825 5.1 -8.9°
Maximum altitude 02:10:49 49° 246° (WSW) 715 2.5 -8.5°
Drops below altitude 10° 02:14:44 10° 172° (S) 1,814 4.6 -8.0°
Sets 02:16:57 0° 166° (SSE) 2,703 5.5 -7.8°
